Theta_e
318 325 337 339 339 338 342 342 339 336 337 335 334 336 340 343 341 340 340 337 331 332 339 343 338 331 336 342 342 343 336 334 329 331 335 336 334 334 335 336 335 335 334 333 332 331 331 330 327
321 331 333 334 337 338 339 335 334 333 336 337 337 342 349 351 343 340 341 339 330 332 337 339 340 336 340 341 341 339 335 332 329 327 331 333 334 334 334 334 334 333 331 329 325 322 321 322 326
329 332 329 335 338 335 339 335 333 332 334 333 336 336 347 348 342 340 343 338 332 333 334 335 334 331 333 334 333 333 332 330 329 327 328 331 333 333 332 331 329 326 324 324 332 337 338 340 342
325 320 322 335 337 337 338 336 338 333 333 331 335 338 342 343 340 342 344 337 333 334 334 338 327 327 331 327 327 327 326 325 324 325 325 329 331 331 330 327 324 328 336 337 339 341 343 344 343
323 314 332 335 334 335 335 335 335 332 331 333 333 340 343 342 343 341 336 336 332 333 332 324 318 321 323 323 321 321 321 321 321 321 322 325 328 327 325 328 335 338 340 342 343 343 340 338 333
319 313 332 333 338 340 337 336 330 331 332 334 336 335 339 343 340 337 336 334 331 326 321 318 319 320 320 320 321 323 325 324 324 324 324 325 325 329 335 339 341 342 342 341 338 333 331 329 332
318 313 319 338 338 337 335 333 331 332 332 335 332 339 340 341 339 338 338 334 331 324 321 322 322 320 320 321 323 323 324 325 326 327 329 332 335 339 341 342 343 342 341 338 334 329 328 329 332
314 313 337 337 337 338 336 334 330 329 330 331 333 337 344 341 343 344 343 337 331 324 322 320 321 321 321 322 322 324 327 330 333 335 336 338 341 343 344 344 342 339 338 337 330 326 326 333 335
313 314 317 326 338 334 334 331 328 327 333 331 331 333 339 341 345 344 343 337 331 328 325 322 320 320 320 322 324 327 332 335 337 340 343 345 347 346 346 345 343 338 333 327 325 325 331 335 342
312 311 314 316 333 333 333 335 325 332 333 332 334 338 340 344 342 341 338 336 332 332 326 322 321 320 321 324 328 331 334 337 342 345 345 346 348 349 350 348 345 339 326 323 323 327 333 337 339
312 313 314 318 327 331 332 334 325 332 331 331 335 342 342 341 340 339 335 330 324 325 324 322 321 321 322 326 330 332 335 339 344 345 346 349 348 348 349 348 335 328 323 323 322 325 332 336 335
315 313 314 316 319 331 333 325 328 330 328 330 334 340 339 339 338 337 334 333 330 326 322 321 321 321 324 327 330 333 336 342 345 347 348 350 349 349 349 335 324 324 324 323 323 323 328 332 335
314 315 314 315 315 329 331 327 328 328 328 331 333 336 337 337 336 336 334 333 326 325 323 321 321 322 324 328 332 337 341 344 345 347 348 351 348 348 333 325 324 324 324 324 324 323 323 331 334
318 317 318 316 321 333 334 331 327 325 330 332 332 332 333 333 333 333 332 331 330 325 323 323 324 326 325 328 333 339 343 344 344 345 347 350 342 339 330 326 325 324 324 324 324 322 321 326 331
318 320 318 322 331 334 331 328 325 327 331 332 333 332 330 330 330 331 331 329 332 332 330 327 331 332 331 331 334 338 342 344 344 344 350 348 340 335 331 327 325 325 324 324 323 322 320 325 329
318 319 322 320 329 333 332 335 326 330 331 332 332 332 331 328 329 328 329 331 331 332 332 332 332 333 334 335 337 337 341 342 342 343 350 347 339 332 330 327 325 325 325 324 321 323 320 318 325
313 321 323 322 322 327 330 331 326 329 331 332 332 332 332 330 327 327 327 331 331 331 332 332 332 333 333 334 336 339 344 344 347 346 350 348 340 334 331 327 325 325 324 323 321 322 319 317 319
317 317 317 319 320 323 328 330 325 329 331 331 331 331 331 330 329 328 326 328 330 330 331 332 332 333 334 333 336 344 347 349 349 350 350 347 338 329 327 326 325 325 324 321 322 322 318 319 322
316 316 316 315 316 323 325 331 325 328 329 329 329 330 330 330 329 329 327 326 328 329 330 331 332 333 335 337 350 350 350 350 350 348 345 343 336 328 327 326 325 324 318 320 322 321 318 319 318
316 317 315 315 317 328 329 332 330 325 327 327 328 328 329 329 328 327 326 325 326 328 331 331 333 338 339 342 349 351 350 350 348 346 341 337 331 329 327 326 325 321 317 318 319 319 319 318 319
316 317 316 317 317 324 333 328 335 328 326 324 324 327 328 328 328 326 322 324 326 328 332 332 334 339 341 344 346 349 350 348 345 341 334 331 331 328 326 326 325 320 318 318 317 319 319 318 317
317 315 317 318 316 316 330 335 328 332 331 330 326 325 325 326 326 326 325 325 327 328 331 333 335 336 341 342 345 346 347 343 344 343 337 330 329 327 327 326 324 324 321 319 319 318 318 318 317
317 317 316 317 315 315 317 320 320 326 332 330 330 328 327 325 325 325 325 325 327 328 331 334 336 337 338 340 342 345 346 345 344 340 334 329 328 327 326 326 327 326 324 321 320 318 316 317 317
319 318 315 312 311 314 314 315 314 317 322 328 328 327 329 327 324 324 325 326 327 330 332 334 337 338 338 339 343 347 347 343 340 335 332 328 328 327 326 328 328 327 325 322 320 317 316 314 313
316 315 317 318 316 317 314 316 314 317 318 320 320 320 320 325 328 326 324 324 327 331 334 338 340 340 339 341 347 348 347 344 343 338 333 327 328 328 329 329 328 327 325 323 321 319 318 316 313
320 316 317 319 317 316 315 316 317 317 316 318 319 318 319 317 319 326 327 324 327 333 337 340 342 342 342 343 346 347 348 345 344 341 334 329 328 328 328 328 327 326 326 324 322 321 318 316 314
322 319 316 317 315 316 315 316 317 319 321 323 323 321 318 319 334 321 322 325 327 335 340 342 343 343 344 344 344 342 346 345 344 340 336 334 328 328 328 328 328 327 327 324 322 321 317 315 315
320 317 319 314 320 319 317 319 320 320 320 323 322 323 319 323 338 329 324 330 335 338 341 343 343 343 343 341 337 339 342 345 344 341 336 335 329 328 328 328 328 328 326 324 322 320 317 315 313
321 320 315 314 316 318 319 318 318 319 321 323 322 323 323 325 337 341 336 335 336 338 341 344 343 340 339 338 335 338 340 341 343 340 337 337 330 328 328 328 328 327 326 323 322 321 317 314 313
321 321 318 321 322 319 319 321 320 320 318 319 320 321 321 320 330 340 339 338 338 340 342 342 340 338 337 338 341 341 340 341 342 338 337 336 329 327 328 328 329 328 326 323 322 320 316 313 312
Wind_Speed
4 8 7 3 3 5 4 5 3 3 3 1 4 2 7 3 6 4 7 19 29 29 24 19 18 17 16 15 14 13 13 14 14 16 16 16 16 15 14 12 10 8 7 5 5 4 4 5 7
6 5 2 2 4 4 4 4 7 4 3 6 6 4 6 2 3 8 14 16 30 27 23 20 17 17 16 15 14 14 14 14 14 14 15 15 14 13 11 10 8 6 5 4 4 4 5 6 7
6 2 2 4 3 2 4 1 4 3 1 3 4 5 4 3 6 12 6 28 29 25 21 18 16 16 15 15 15 14 14 13 13 13 13 13 12 11 9 7 5 3 3 4 6 7 8 9 10
4 2 3 3 2 3 4 5 4 4 4 6 3 6 4 4 16 11 24 31 27 22 20 17 16 15 15 15 15 15 14 14 13 13 13 12 11 8 6 4 4 4 5 6 7 8 9 10 10
2 3 2 2 3 4 4 3 5 7 2 4 3 3 5 9 9 24 33 28 26 23 19 17 16 16 16 16 16 16 15 15 14 14 13 11 9 6 4 3 4 5 6 7 8 9 10 10 10
3 3 4 2 3 4 4 5 7 4 3 2 5 6 2 17 28 32 30 28 25 24 21 19 17 17 17 17 17 16 15 14 13 12 11 9 7 5 4 4 5 7 8 10 11 12 12 12 11
4 4 3 3 3 4 3 5 8 7 6 1 6 5 3 10 23 30 28 27 25 23 22 20 19 18 17 17 16 15 14 13 13 12 10 8 7 6 5 6 7 8 9 9 10 12 13 13 11
4 4 4 2 0 5 1 1 4 9 3 5 6 7 5 13 21 25 24 25 24 23 22 21 19 18 18 17 16 15 14 13 11 10 9 7 7 6 5 6 7 8 8 7 10 12 13 12 13
3 4 2 4 3 4 6 5 3 2 11 2 4 5 15 29 25 25 23 22 22 23 22 21 21 20 19 18 17 16 14 13 11 10 9 8 7 7 6 6 6 7 8 11 11 14 12 14 19
4 4 8 6 4 4 3 5 10 5 10 1 6 13 28 30 27 23 21 22 25 24 25 24 22 22 20 19 18 17 16 15 13 11 9 8 7 6 4 3 3 5 12 10 11 14 15 15 18
5 6 6 6 11 10 3 6 7 10 8 8 20 20 24 28 24 23 22 33 34 29 27 26 24 22 22 22 20 19 18 17 14 12 8 6 7 7 6 3 3 10 11 11 10 12 14 15 16
3 9 8 10 10 8 6 6 7 15 7 15 22 26 22 22 20 23 24 26 26 31 30 28 27 26 25 22 22 21 20 18 16 12 8 6 8 8 10 10 13 12 11 9 9 12 15 13 16
4 6 6 13 10 12 10 10 5 15 1 15 16 19 21 20 25 27 36 33 32 32 31 30 29 28 27 25 23 22 21 20 17 13 11 10 10 13 16 14 12 10 11 9 8 9 12 13 17
4 5 8 10 5 8 11 3 8 7 9 17 17 17 18 20 26 25 23 28 35 36 35 34 33 30 29 28 25 24 21 19 16 14 12 13 16 16 16 14 12 12 9 8 7 9 8 14 18
5 7 7 3 3 3 9 4 15 7 14 18 19 16 15 18 24 27 33 31 40 40 39 39 36 34 32 30 28 27 23 21 20 16 13 19 17 16 16 14 13 12 9 8 7 11 12 13 17
5 3 3 5 5 3 10 13 8 18 20 18 20 17 17 17 27 30 35 40 42 40 40 41 39 38 36 34 30 28 26 25 24 23 20 19 19 17 15 14 13 12 9 7 8 10 11 12 13
6 2 2 7 5 3 4 7 5 14 19 20 19 19 19 17 16 28 34 44 45 45 44 43 43 42 41 38 33 28 25 28 25 26 26 21 19 17 16 15 13 11 7 6 8 10 9 9 9
3 4 4 5 3 2 8 11 8 18 21 23 20 18 19 19 24 34 36 39 44 45 46 46 46 45 43 40 34 31 27 27 26 28 27 22 19 21 19 15 12 9 7 7 9 10 10 11 14
2 3 5 6 8 3 4 8 13 21 15 15 16 17 19 22 25 30 30 35 36 43 44 48 43 43 40 34 32 28 30 29 29 28 24 22 20 19 17 15 13 10 10 10 9 11 11 17 23
3 4 10 9 5 4 6 6 5 11 21 19 20 18 21 22 16 21 28 35 35 45 46 43 46 46 44 40 40 34 32 31 30 26 21 20 21 20 20 18 17 13 13 12 9 7 12 10 9
4 4 7 9 6 3 2 5 3 6 8 10 9 18 19 23 23 20 18 32 37 39 43 44 46 49 48 38 33 25 28 27 27 27 26 26 21 21 22 21 19 17 14 13 10 8 5 10 11
5 8 11 6 2 3 3 4 5 5 12 15 20 17 20 23 20 19 21 23 34 39 39 44 46 50 47 46 41 42 38 27 33 38 31 28 25 26 24 22 21 19 15 13 11 8 9 9 13
10 3 7 4 3 4 3 3 7 3 5 10 19 24 22 26 24 22 22 34 39 32 38 44 47 50 50 51 50 49 39 35 35 38 32 30 30 27 26 24 22 20 17 13 12 11 10 8 8
5 3 5 5 4 1 6 7 6 5 8 5 6 12 18 19 22 24 33 41 25 32 37 43 47 50 54 56 52 40 33 37 35 38 36 33 30 28 28 27 25 21 19 16 14 13 12 10 9
4 6 3 5 4 6 2 3 8 7 8 9 11 14 12 15 18 21 22 22 31 37 45 42 45 48 57 55 41 38 35 40 39 41 39 36 33 32 33 32 28 26 21 19 17 16 13 11 10
2 7 5 7 5 7 2 4 6 10 10 9 11 12 14 14 12 22 26 24 37 43 44 44 45 45 48 46 40 40 37 36 39 41 41 40 41 39 36 33 31 28 24 21 18 16 13 13 12
3 3 4 2 2 3 4 7 9 7 8 8 9 10 10 8 7 10 9 22 33 35 41 46 43 42 39 44 42 35 34 34 38 40 40 39 41 38 38 35 32 29 26 23 21 18 16 15 14
5 5 0 2 3 5 5 3 5 8 9 8 10 8 8 7 9 8 10 14 27 35 39 37 37 41 47 48 41 34 35 36 36 38 40 39 40 35 38 35 34 32 29 26 23 20 17 16 17
1 3 4 5 5 5 2 6 7 8 8 8 8 7 6 6 7 4 6 12 27 28 31 33 35 37 42 44 38 34 36 37 37 40 41 40 37 36 41 37 37 35 31 29 26 23 20 18 18
3 5 5 5 5 3 4 6 3 5 8 8 10 15 16 11 8 8 7 7 14 26 30 34 36 41 41 39 36 35 35 38 39 39 39 38 39 37 41 40 39 38 34 31 28 27 24 23 22
Wind_Direction
157 145 140 97 52 61 346 325 281 204 358 300 121 191 173 102 155 201 152 161 168 163 164 164 157 151 147 144 140 139 138 137 133 131 129 127 126 124 123 121 116 108 98 87 75 59 44 34 28
156 144 146 66 77 48 309 282 5 329 152 103 78 68 44 27 57 115 130 162 161 158 162 161 155 149 147 145 145 144 143 140 137 136 136 133 131 129 126 123 117 106 89 65 42 31 27 27 31
136 142 86 101 112 158 180 289 70 1 240 312 114 69 97 133 97 143 154 163 157 158 161 157 155 151 148 146 146 146 145 143 141 140 141 140 138 136 133 126 113 90 66 55 48 37 31 28 30
158 35 33 75 345 256 206 216 186 161 324 23 91 65 53 265 140 169 151 158 154 156 159 156 153 150 148 147 147 147 147 146 147 146 147 148 147 144 138 122 95 73 58 46 39 38 34 30 31
42 52 51 95 245 254 243 247 189 133 97 356 333 80 91 134 151 150 155 159 157 158 161 157 156 154 152 149 148 147 146 145 143 144 146 147 147 142 127 97 66 49 40 37 37 37 35 31 25
46 100 54 271 240 255 249 225 147 101 100 106 86 94 64 143 142 153 160 162 163 160 161 158 158 156 153 150 148 146 145 143 142 141 141 141 140 132 109 75 56 51 47 48 51 47 45 39 31
121 85 207 266 283 312 258 189 129 127 123 143 162 84 84 146 155 159 165 165 165 164 161 160 159 158 155 153 151 149 148 146 146 144 144 145 139 121 98 76 65 61 53 49 50 41 35 29 39
99 87 350 229 56 287 131 2 149 115 138 125 162 145 184 180 156 159 167 168 169 167 166 163 162 161 161 158 156 155 153 153 152 151 149 145 136 123 105 87 72 62 54 55 54 40 35 50 64
124 53 273 268 184 224 181 105 330 97 135 240 212 132 155 151 150 150 161 167 174 173 171 168 167 167 166 164 162 161 159 159 157 154 150 151 151 142 121 93 71 60 69 72 58 50 60 75 86
114 127 220 249 248 253 118 101 155 123 161 298 91 95 136 144 151 153 164 173 181 181 179 176 174 172 171 171 170 170 170 168 168 169 176 181 186 185 167 162 142 107 107 86 81 72 83 94 103
175 186 232 263 229 257 281 139 163 129 213 219 153 149 152 155 164 170 175 180 185 183 181 182 180 177 178 178 178 178 177 176 179 187 190 199 207 212 194 158 157 138 121 102 92 86 92 110 116
168 236 185 257 231 204 203 140 166 176 224 165 160 159 156 164 172 177 179 192 188 186 185 184 185 184 184 183 186 183 184 188 193 189 197 196 197 192 174 160 142 131 120 112 95 91 83 107 131
171 228 224 247 256 206 158 186 175 200 305 141 151 159 167 171 178 184 185 187 187 189 190 189 188 191 189 190 190 191 193 197 197 196 202 201 188 166 159 151 147 131 115 109 97 90 88 97 143
237 211 255 278 270 166 163 122 130 191 161 149 167 170 179 180 184 184 187 189 189 190 190 190 191 192 193 194 194 195 196 202 207 208 214 212 180 165 166 158 152 144 136 126 113 84 86 106 137
282 319 340 291 121 102 103 111 224 156 161 165 179 185 180 193 189 191 192 193 192 195 191 192 194 194 196 197 198 202 203 212 214 214 207 184 185 179 173 171 163 155 141 124 106 97 91 98 132
7 41 27 272 118 227 133 235 228 164 158 181 186 191 196 198 199 198 196 200 199 199 200 197 196 199 200 201 202 208 212 219 221 219 201 192 187 181 178 174 164 157 150 131 119 111 95 94 122
1 255 292 327 197 103 135 253 207 177 171 183 191 195 200 206 214 209 202 202 203 204 204 204 202 204 205 206 203 208 210 212 213 201 202 199 193 192 190 177 168 161 167 152 124 111 88 83 113
246 347 318 277 296 120 198 237 185 183 185 188 193 196 205 209 215 213 210 206 207 207 208 208 206 207 209 208 206 197 197 202 202 198 198 197 190 180 176 173 171 172 180 147 135 113 92 87 117
257 220 265 256 258 249 254 222 199 198 195 189 191 202 210 217 216 213 219 215 208 207 208 207 203 208 206 199 189 185 192 193 191 192 189 198 187 181 180 176 178 170 169 155 145 127 106 113 122
238 308 295 292 330 162 303 287 227 186 206 201 194 200 214 225 218 216 214 216 207 205 205 203 202 203 199 194 193 187 190 191 192 192 194 194 191 189 188 182 177 171 167 152 160 156 116 94 159
250 211 257 233 336 317 26 321 206 192 200 219 233 221 218 219 214 212 205 208 209 204 197 198 197 200 199 196 196 191 192 191 188 190 190 188 192 188 188 182 178 170 169 156 155 171 161 130 91
276 212 232 244 141 219 79 271 300 201 229 221 223 218 224 224 223 223 216 211 212 211 198 199 198 200 199 202 202 196 195 184 198 195 190 188 189 187 188 184 177 173 169 161 151 151 151 144 124
239 157 208 210 160 81 334 92 266 330 265 231 227 224 224 224 222 216 213 218 215 199 198 199 199 201 200 204 209 206 192 197 196 193 186 187 190 194 188 184 179 178 169 163 152 147 138 162 160
254 134 43 37 101 69 238 166 270 240 225 284 265 201 225 230 227 223 214 218 198 196 195 197 194 200 203 208 211 205 196 189 185 186 185 185 187 191 191 186 183 182 173 168 155 147 142 143 138
87 63 332 337 349 230 286 68 243 258 244 228 268 283 246 224 228 224 214 207 196 189 192 192 191 197 204 208 206 204 203 199 189 190 187 182 188 198 195 187 183 180 175 171 166 156 150 143 144
191 152 154 231 229 249 3 247 245 227 267 253 250 256 275 267 218 220 217 203 196 191 190 190 194 200 201 205 206 206 205 202 200 196 193 190 193 197 192 186 181 180 174 173 172 165 157 153 154
276 208 193 162 55 68 226 294 300 279 290 309 316 351 332 285 263 243 233 205 196 190 191 190 195 202 199 204 205 209 207 204 205 200 202 199 199 199 190 183 182 181 179 179 177 173 165 164 163
165 173 352 16 262 267 283 264 233 292 291 301 319 332 318 321 326 304 161 165 185 189 192 195 196 198 200 207 210 210 206 211 208 207 203 204 202 201 192 184 185 181 182 182 179 177 171 172 162
284 256 63 122 149 191 223 264 223 246 260 253 277 287 258 268 255 255 310 190 188 190 189 193 196 201 204 208 208 207 207 210 211 212 207 207 205 202 196 189 186 182 182 181 183 181 175 175 165
233 233 160 138 251 216 165 259 262 297 308 324 325 326 328 303 235 208 192 186 199 190 190 197 200 202 205 204 204 208 210 211 213 211 207 205 205 202 199 194 188 185 188 185 185 180 179 176 171